Weather History for Batman, Turkey

Change the Weather History Date:

Thursday, July 24, 2014

  Actual Average (LTCC) Record (LTCC)
Temperature  
Mean Temperature 88 °F -  
Max Temperature 107 °F 100 °F 110 °F (2012)
Min Temperature 68 °F 72 °F 66 °F (2000)
Cooling Degree Days 22    
Growing Degree Days 38 (Base 50)    
Moisture  
Dew Point 46 °F    
Average Humidity 26    
Maximum Humidity 68    
Minimum Humidity 4    
Precipitation  
Precipitation 0.00 in - - ()
Sea Level Pressure  
Sea Level Pressure 29.58 in    
Wind  
Wind Speed 5 mph ()    
Max Wind Speed 14 mph    
Max Gust Speed -    
Visibility 11.0 miles    
Events      
Averages and records for this station are not official NWS values.
T = Trace of Precipitation, MM = Missing Value Source: Averaged Metar Reports

Daily Weather History Graph

Daily Weather History Graph

Search for Another Location

Airport:

Trip Planner

Search our weather history database for the weather conditions in past years. The results will help you decide how hot, cold, wet, or windy it might be!

Date:

Astronomy

Jul. 24, 2014 Rise Set
Actual Time 5:11 AM EEST 7:31 PM EEST
Civil Twilight 4:41 AM EEST 8:01 PM EEST
Nautical Twilight 4:05 AM EEST 8:38 PM EEST
Astronomical Twilight 3:24 AM EEST 9:18 PM EEST
Moon 3:01 AM EEST (7/24) 5:31 PM EEST (7/24)
Length of Visible Light 15h 19m
Length of Day
14h 20m
Waning Crescent, 6% of the Moon is Illuminated
Jul 24
Waning Crescent
Jul 27
New
Aug 4
First Quarter
Aug 10
Full
Aug 17
Last Quarter

Hourly Weather History & Observations

Time (EEST) Temp. Heat Index Dew Point Humidity Pressure Visibility Wind Dir Wind Speed Gust Speed Precip Events Conditions
12:20 AM 80.6 °F 80.5 °F 55.4 °F 42% 29.68 in - NE 8.1 mph - N/A   Clear
12:50 AM 75.2 °F - 59.0 °F 57% 29.68 in - NE 5.8 mph - N/A   Clear
1:20 AM 77.0 °F - 53.6 °F 44% 29.68 in - NNE 5.8 mph - N/A   Clear
1:50 AM 77.0 °F - 55.4 °F 47% 29.68 in - NNE 3.5 mph - N/A   Clear
2:20 AM 73.4 °F - 60.8 °F 65% 29.68 in - Variable 1.2 mph - N/A   Clear
2:50 AM 73.4 °F - 60.8 °F 65% 29.65 in - Calm Calm - N/A   Clear
3:20 AM 73.4 °F - 59.0 °F 61% 29.65 in - Calm Calm - N/A   Clear
3:50 AM 73.4 °F - 59.0 °F 61% 29.65 in - Calm Calm - N/A   Clear
4:50 AM 69.8 °F - 55.4 °F 60% 29.65 in - NE 4.6 mph - N/A   Clear
5:50 AM 69.8 °F - 59.0 °F 68% 29.68 in - Calm Calm - N/A   Clear
6:50 AM 75.2 °F - 59.0 °F 57% 29.68 in - Variable 2.3 mph - N/A   Clear
7:20 AM 77.0 °F - 55.4 °F 47% 29.68 in - South 3.5 mph - N/A   Clear
7:50 AM 78.8 °F - 59.0 °F 51% 29.68 in - SW 3.5 mph - N/A   Clear
8:20 AM 82.4 °F 81.4 °F 53.6 °F 37% 29.68 in - WSW 3.5 mph - N/A   Clear
8:50 AM 86.0 °F 84.9 °F 57.2 °F 37% 29.68 in - SSW 4.6 mph - N/A   Clear
9:00 AM 89 °F - 53 °F 20% 29.53 in 12 mi WNW 2.3 mph - -  
9:20 AM 89.6 °F 88.9 °F 59.0 °F 36% 29.68 in - SSW 5.8 mph - N/A   Clear
9:50 AM 93.2 °F 90.8 °F 53.6 °F 26% 29.65 in - WSW 5.8 mph - N/A   Clear
10:00 AM 97 °F - 47 °F 10% 29.51 in 12 mi NNW 3.5 mph - -  
10:20 AM 96.8 °F - 50.0 °F 20% 29.65 in - West 5.8 mph - N/A   Clear
10:50 AM 104.0 °F - 39.2 °F 11% 29.65 in - ENE 13.8 mph - N/A   Clear
11:00 AM 101 °F - 37 °F 5% 29.49 in 12 mi NNE 6.9 mph - -  
11:20 AM 102.2 °F - 41.0 °F 12% 29.62 in - North 11.5 mph - N/A   Clear
11:50 AM 102.2 °F - 42.8 °F 13% 29.62 in - North 11.5 mph - N/A   Clear
12:00 PM 104 °F - 39 °F 5% 29.46 in 12 mi East 10.4 mph - -  
12:20 PM 104.0 °F - 39.2 °F 11% 29.59 in - North 10.4 mph - N/A   Clear
12:50 PM 104.0 °F - 37.4 °F 10% 29.59 in - North 10.4 mph - N/A   Clear
1:00 PM 105 °F - 32 °F 4% 29.44 in 12 mi ENE 10.4 mph - -   Scattered Clouds
1:20 PM 104.0 °F - 41.0 °F 12% 29.59 in - North 10.4 mph - N/A   Clear
1:50 PM 104.0 °F - 39.2 °F 11% 29.59 in - North 10.4 mph - N/A   Clear
2:00 PM 106 °F - 33 °F 4% 29.43 in 12 mi NNW 3.5 mph - -   Scattered Clouds
2:20 PM 105.8 °F - 37.4 °F 10% 29.56 in - North 9.2 mph - N/A   Clear
2:50 PM 105.8 °F - 33.8 °F 8% 29.56 in - WNW 5.8 mph - N/A   Clear
3:00 PM 106 °F - 33 °F 4% 29.42 in 12 mi ENE 4.6 mph - -   Scattered Clouds
3:20 PM 107.6 °F - 37.4 °F 9% 29.56 in - North 8.1 mph - N/A   Clear
3:50 PM 107.6 °F - 33.8 °F 8% 29.56 in - NNW 6.9 mph - N/A   Clear
4:00 PM 105 °F - 32 °F 4% 29.42 in 12 mi NNW 5.8 mph - -  
4:20 PM 105.8 °F - 33.8 °F 8% 29.56 in - North 6.9 mph - N/A   Clear
4:50 PM 105.8 °F - 33.8 °F 8% 29.56 in - NNE 8.1 mph - N/A   Clear
5:00 PM 106 °F - 33 °F 4% 29.41 in 12 mi NNW 3.5 mph - -  
5:20 PM 105.8 °F - 33.8 °F 8% 29.53 in - NNE 9.2 mph - N/A   Clear
5:50 PM 105.8 °F - 35.6 °F 9% 29.53 in - NE 9.2 mph - N/A   Clear
6:00 PM 106 °F - 33 °F 4% 29.41 in 12 mi NNE 1.2 mph - -  
6:20 PM 104.0 °F - 35.6 °F 9% 29.53 in 6.2 mi ENE 8.1 mph - N/A   Unknown
6:50 PM 100.4 °F - 35.6 °F 11% 29.53 in 6.2 mi ENE 5.8 mph - N/A   Unknown
7:20 PM 95.0 °F - 50.0 °F 22% 29.53 in - NW 3.5 mph - N/A   Clear
7:50 PM 91.4 °F - 50.0 °F 24% 29.56 in - West 4.6 mph - N/A   Clear
8:20 PM 89.6 °F - 46.4 °F 22% 29.56 in - SE 3.5 mph - N/A   Clear
8:50 PM 87.8 °F - 46.4 °F 24% 29.56 in - Variable 2.3 mph - N/A   Clear
9:20 PM 86.0 °F - 46.4 °F 25% 29.56 in - Variable 2.3 mph - N/A   Clear
9:50 PM 80.6 °F - 51.8 °F 37% 29.56 in - NNE 4.6 mph - N/A   Clear
10:20 PM 78.8 °F - 53.6 °F 42% 29.56 in - NNE 5.8 mph - N/A   Clear
10:50 PM 77.0 °F - 50.0 °F 39% 29.56 in - NNE 8.1 mph - N/A   Clear
11:20 PM 75.2 °F - 53.6 °F 47% 29.56 in - NNE 9.2 mph - N/A   Clear
11:50 PM 75.2 °F - 57.2 °F 53% 29.56 in - NE 8.1 mph - N/A   Clear